Probability
1 1 0 0 0 0 0 0 0 0 0 0 0 0 0 0 0 1 2 1 0 0 1 2 1 0 0 0 0 0 0 0 0 0 0 0 0 0 0 0 0 0 0 0
1 0 0 0 0 0 0 0 0 0 0 0 0 0 0 0 0 1 2 1 0 0 1 2 1 0 0 0 0 1 1 0 0 0 0 0 0 0 0 0 0 0 0 0
0 0 0 0 0 0 0 0 0 0 0 0 0 0 0 0 1 1 2 2 0 0 1 2 2 1 0 0 0 1 2 1 1 0 0 0 0 0 0 0 0 0 0 0
0 0 0 0 0 0 0 0 0 0 0 0 0 0 0 1 2 3 3 2 0 0 1 2 3 2 1 1 0 1 2 3 2 1 0 0 0 0 0 0 0 0 0 0
0 0 0 0 0 0 0 0 0 0 0 0 0 0 0 1 2 3 3 2 1 0 1 2 3 3 3 2 1 1 2 3 3 2 1 1 0 0 0 0 0 0 0 0
0 0 0 0 0 0 0 0 0 0 0 0 0 0 0 1 2 3 3 3 1 0 0 1 3 3 3 2 1 1 2 3 3 3 3 2 1 0 0 0 0 0 0 0
0 0 0 0 0 0 0 0 0 0 0 0 0 0 0 0 1 1 2 3 2 1 1 1 3 4 3 2 1 1 1 3 3 3 3 3 2 0 0 0 0 0 0 0
0 0 0 0 0 0 0 0 0 0 0 0 0 0 0 0 0 0 1 2 3 3 2 3 4 5 4 3 2 2 2 3 3 3 3 3 1 0 0 0 0 0 0 0
0 0 0 0 0 0 0 0 0 0 0 0 0 0 0 0 0 0 0 1 3 3 3 3 4 5 5 4 3 2 3 4 4 3 2 2 1 0 0 0 0 0 0 0
0 0 0 0 0 0 0 0 0 0 0 0 0 0 0 0 0 0 0 1 2 3 3 4 4 5 4 3 2 1 1 3 3 2 1 1 0 0 0 0 0 0 0 0
0 0 0 0 0 0 0 0 0 0 0 0 0 0 0 0 0 0 0 0 1 3 3 3 4 4 4 2 1 0 0 1 1 1 0 0 0 0 0 0 0 0 0 0
0 0 0 0 0 0 0 0 0 0 0 0 0 0 0 0 0 0 0 0 1 2 3 3 3 4 4 2 0 0 0 0 0 0 0 0 0 0 0 0 0 0 0 0
0 0 0 0 0 0 0 0 0 0 0 0 0 0 0 0 0 0 0 0 1 2 3 3 3 3 3 2 1 0 0 0 0 0 0 0 0 0 0 0 0 0 0 0
0 0 0 0 0 0 0 0 0 0 0 0 0 0 0 0 0 0 0 0 1 3 3 3 3 3 3 2 1 0 0 0 0 1 1 0 0 0 0 0 0 0 0 0
0 0 0 0 0 0 0 0 0 0 0 0 0 0 0 0 0 0 0 0 2 3 3 3 3 3 2 1 1 0 0 0 1 2 2 1 1 1 1 1 1 1 0 0
0 0 0 0 0 0 0 0 0 0 0 0 0 0 0 0 0 0 0 0 1 2 3 3 3 2 1 0 0 0 0 0 1 2 2 2 2 2 2 3 4 3 2 2
0 0 0 0 0 0 0 0 0 0 0 0 0 0 0 0 0 0 0 0 0 1 2 2 1 1 0 0 0 0 0 0 0 1 1 2 3 3 3 4 5 6 6 6
0 0 0 0 0 0 0 0 0 0 0 0 0 0 0 0 0 0 0 0 0 0 1 2 1 0 0 0 0 0 0 0 0 0 0 1 3 3 3 4 6 7 7 8
0 0 0 0 0 0 0 0 0 0 0 0 0 0 0 0 0 0 0 0 0 0 1 2 1 0 0 0 0 0 0 0 0 0 1 1 3 3 3 4 6 6 6 6
0 0 0 0 0 0 0 0 0 0 0 0 0 0 0 0 0 0 0 1 1 1 1 1 1 0 0 0 0 0 0 0 1 1 2 3 3 3 2 3 4 5 3 3
0 0 0 0 0 0 0 0 0 0 0 0 0 0 0 0 0 0 0 1 2 2 1 1 0 0 0 0 0 0 0 1 2 2 2 2 2 1 1 1 2 2 2 1
0 0 0 0 0 0 0 0 0 0 0 0 0 0 0 0 0 0 0 1 2 3 2 1 0 0 0 0 0 0 1 1 3 3 2 1 1 0 0 0 0 0 1 1
0 0 0 0 0 0 0 0 0 0 0 0 0 0 0 0 0 0 0 1 2 3 3 2 1 1 1 1 0 0 1 2 3 3 2 1 0 0 0 0 0 0 0 1
0 0 0 0 0 0 0 0 0 0 0 0 0 0 0 0 0 0 0 1 2 2 3 3 3 1 1 0 0 0 1 3 4 3 2 1 0 0 0 0 0 0 0 1
0 0 0 0 0 0 0 0 0 0 0 0 0 0 0 0 0 0 0 1 1 1 2 3 2 1 0 0 0 0 2 4 4 3 1 0 0 0 0 0 0 0 0 1
0 0 0 0 0 0 0 0 0 0 0 0 0 0 0 0 0 0 1 1 1 1 1 1 1 0 0 0 0 1 2 4 5 3 2 1 0 0 0 0 0 0 0 0
Wind_Speed
4 4 3 3 4 5 4 3 2 0 2 2 3 3 5 7 6 6 6 6 6 6 7 6 5 4 4 5 5 5 5 3 3 2 1 2 2 2 3 3 4 3 3 3
3 4 2 2 3 4 3 2 1 1 1 2 3 4 5 7 8 7 7 7 7 8 7 7 6 5 4 5 5 5 5 4 4 2 2 2 2 2 3 3 3 3 3 3
3 0 1 1 2 4 3 2 3 3 4 4 4 5 6 8 7 6 5 5 6 8 8 8 7 6 5 5 5 4 5 5 5 4 2 2 2 2 2 2 2 2 3 3
2 0 1 2 3 4 4 3 3 4 5 3 4 3 3 7 7 7 7 6 5 6 7 8 7 6 5 5 4 5 5 5 5 5 3 3 3 2 2 2 2 2 3 3
2 1 2 3 3 4 3 3 4 6 6 5 5 3 2 6 7 7 8 7 6 6 6 7 7 6 6 5 3 3 4 4 4 4 4 2 2 2 2 2 3 3 2 2
3 2 2 2 2 3 4 5 6 6 4 5 5 4 1 3 5 7 7 7 7 7 6 6 7 7 6 6 4 4 4 4 4 4 4 3 3 2 3 3 2 2 2 2
4 4 3 2 3 3 5 4 3 3 3 3 1 2 2 4 4 6 7 8 7 7 7 7 7 7 7 7 5 4 5 4 4 4 4 5 4 3 3 3 2 2 2 2
4 4 5 4 4 3 5 5 4 3 2 1 2 1 4 6 5 6 6 6 6 8 7 7 8 8 8 7 6 5 5 5 4 4 4 4 4 2 2 2 3 2 2 2
3 1 4 3 3 5 5 4 5 6 7 4 1 3 5 6 6 5 6 6 6 7 7 7 8 8 8 7 6 5 6 5 5 4 3 3 4 3 3 2 2 2 2 2
5 2 4 3 4 5 6 5 3 3 3 3 1 2 2 4 3 4 6 6 7 7 7 8 8 8 8 7 6 6 5 6 5 4 4 3 3 3 3 2 3 3 3 2
7 4 4 5 5 5 5 5 4 3 3 2 1 2 4 4 3 2 5 6 6 7 7 7 7 8 8 7 7 6 6 5 5 4 4 4 3 3 3 2 2 2 3 2
4 5 5 5 4 3 4 5 4 3 3 3 1 1 4 5 4 2 4 6 6 7 7 7 7 7 7 7 7 6 5 5 4 4 4 4 3 3 3 3 3 2 3 2
3 5 4 3 3 4 4 5 5 5 4 3 2 1 3 4 4 3 4 5 6 7 6 7 6 6 6 6 5 5 5 5 5 4 3 4 4 3 3 3 3 2 3 2
4 7 6 4 2 2 4 5 6 6 4 4 3 2 2 3 3 3 4 5 5 6 6 6 6 5 5 6 6 6 5 5 5 5 4 4 4 4 4 3 2 2 2 2
5 8 8 7 5 5 5 5 6 7 6 5 4 2 1 2 2 3 4 5 5 6 6 7 6 5 5 5 5 6 6 6 6 5 4 3 4 4 3 3 3 2 2 1
6 7 8 8 7 6 7 6 7 7 7 6 5 3 2 1 2 3 4 4 4 5 5 6 6 6 5 5 5 5 6 6 6 6 5 4 4 4 4 4 3 3 2 1
7 7 7 7 6 8 9 7 7 7 6 5 4 2 1 1 0 1 3 4 4 5 5 5 6 6 5 5 5 5 6 5 6 6 5 5 4 4 3 4 3 3 3 2
8 8 5 7 7 8 3 1 3 5 5 5 3 2 2 1 0 1 3 4 4 4 5 5 5 5 4 4 4 4 5 5 5 5 6 5 5 5 4 4 3 3 3 3
8 7 5 5 7 7 4 2 2 4 5 3 4 3 1 1 1 2 3 3 4 4 4 4 4 4 4 3 4 4 4 4 4 4 6 6 5 5 5 4 4 3 3 3
9 8 6 6 7 6 2 1 1 3 4 3 3 1 1 2 2 1 2 3 3 4 4 3 3 3 4 3 4 4 5 4 4 4 4 5 5 5 5 4 4 3 3 3
10 9 9 8 8 5 1 2 1 3 1 3 2 2 1 0 1 1 2 2 4 4 4 3 3 3 3 3 4 4 4 5 5 4 4 4 5 5 4 3 3 3 3 3
8 7 8 7 7 4 1 2 1 1 2 3 3 3 2 3 3 2 2 2 3 4 4 4 3 3 3 3 4 3 3 4 5 5 5 5 4 4 4 3 3 3 4 3
6 5 3 4 2 1 1 1 2 3 3 3 3 4 3 2 2 1 1 2 3 4 4 4 3 3 3 3 3 3 3 4 6 6 5 5 5 4 4 4 3 3 3 2
5 5 5 5 3 2 1 1 2 2 2 3 3 2 2 1 2 1 1 1 3 3 3 3 4 3 3 3 3 3 4 4 6 6 6 5 5 5 4 3 3 3 2 2
3 3 6 7 4 2 2 1 0 1 1 2 2 2 2 1 1 1 1 1 2 2 3 4 4 3 3 3 3 3 3 4 5 5 5 5 5 5 5 4 3 3 2 2
6 6 6 5 3 3 2 0 1 0 0 1 1 2 2 2 1 1 0 1 2 3 3 3 4 3 4 3 3 3 3 3 5 5 5 4 4 4 5 5 4 6 5 6
Wind_Direction
221 239 244 246 254 292 306 324 323 105 148 204 242 221 184 171 176 179 179 182 173 165 161 149 150 148 143 132 126 128 132 130 114 97 85 87 81 66 72 76 67 53 40 40
227 250 275 332 318 292 291 297 299 283 191 232 230 240 190 181 187 187 187 183 177 170 165 153 156 154 148 138 143 145 143 136 126 118 115 117 107 94 86 71 60 54 54 38
251 26 63 266 280 281 282 297 310 309 291 242 225 242 195 179 180 182 183 185 185 169 166 162 165 159 155 151 156 153 150 141 135 125 95 84 78 72 90 97 80 54 58 47
262 340 351 284 286 292 303 351 301 282 282 279 240 257 188 170 168 179 181 192 197 174 170 165 163 158 156 152 159 161 146 136 127 122 115 123 119 121 124 127 121 103 74 64
237 195 241 260 289 307 320 334 291 276 276 282 259 252 181 159 173 182 182 190 188 171 170 163 158 154 154 146 146 133 120 118 119 121 121 119 111 124 114 107 113 115 95 83
238 228 272 291 305 307 300 286 268 255 262 264 245 219 153 162 171 176 178 182 177 165 162 155 151 144 142 139 139 133 128 125 133 138 143 136 119 107 101 105 112 117 113 95
211 202 200 242 262 242 257 278 275 233 218 239 191 176 134 129 145 165 172 170 172 164 162 157 154 148 147 146 148 150 141 141 157 167 160 149 146 148 151 146 140 136 124 119
215 202 179 203 245 252 243 254 274 300 304 264 203 154 114 111 115 138 149 158 165 158 160 162 156 150 151 153 158 162 156 161 172 181 172 155 150 155 156 151 145 145 135 145
257 181 156 188 248 270 265 249 266 289 299 293 189 124 120 114 113 130 142 151 159 154 156 157 153 153 153 158 165 171 166 163 174 186 162 153 152 159 152 161 143 133 134 138
290 247 181 177 236 242 269 295 284 267 298 294 254 142 138 127 113 132 146 156 157 157 157 155 152 153 157 160 167 172 170 167 173 180 163 157 155 155 151 145 133 139 136 121
282 262 196 194 220 239 228 248 265 273 266 296 319 49 98 122 119 139 144 147 155 154 152 152 154 159 156 157 168 175 169 165 170 176 166 156 155 151 148 143 131 126 122 136
279 280 240 210 205 244 257 247 249 266 282 279 283 89 97 112 112 118 132 138 149 147 144 149 154 155 156 163 172 170 162 163 164 165 155 155 153 152 153 146 145 158 149 158
303 277 263 204 193 208 241 260 264 267 271 273 272 164 121 121 123 121 127 136 145 144 147 152 153 158 160 163 167 165 160 158 151 151 157 158 155 160 159 159 167 167 153 156
277 264 267 265 287 219 237 251 264 263 262 264 250 220 154 106 113 120 128 138 141 150 153 150 152 158 159 167 174 169 160 157 154 158 167 164 158 158 160 160 152 148 134 145
258 268 276 284 283 270 253 247 251 258 265 268 269 268 218 134 141 142 147 145 151 157 157 152 158 160 163 173 177 168 163 162 163 160 163 170 160 152 152 144 140 128 102 90
249 268 277 273 265 265 264 252 251 256 263 264 266 273 299 168 146 149 148 150 156 159 162 160 163 162 173 177 178 170 168 170 165 163 165 164 155 149 149 147 151 145 131 112
239 261 272 268 261 260 255 243 244 248 250 256 260 266 291 235 149 122 150 156 163 160 156 162 167 168 180 184 182 174 171 165 166 165 164 158 153 150 149 150 150 150 147 137
241 254 264 270 265 251 243 202 237 254 249 258 263 275 270 231 170 158 150 157 163 158 162 167 173 168 177 181 172 166 165 168 168 165 161 157 158 158 156 155 157 162 160 159
235 239 255 262 262 257 240 215 244 259 256 277 267 242 233 212 202 149 115 131 149 155 152 161 167 159 170 170 157 154 157 159 157 162 163 158 157 159 162 166 169 168 159 158
229 239 243 252 255 252 250 102 74 284 257 300 311 284 194 201 218 154 110 117 138 139 140 148 149 149 158 154 147 151 158 155 155 155 158 156 155 158 164 169 170 161 156 164
212 224 233 246 251 255 255 118 170 238 317 6 2 8 30 61 8 76 103 113 137 135 133 134 140 141 145 146 147 155 159 165 160 150 144 141 146 152 155 162 158 152 149 148
213 217 228 236 240 241 96 148 186 11 29 13 19 22 29 45 50 52 99 116 129 128 127 132 133 127 126 135 142 148 153 149 139 135 135 134 137 144 144 138 139 139 139 144
221 223 234 236 229 97 83 49 27 4 5 8 15 26 39 49 41 50 109 147 144 134 136 133 129 127 126 129 129 136 127 125 130 130 132 131 131 126 125 129 131 128 132 142
225 233 238 240 226 192 211 78 48 356 358 3 6 8 34 43 14 349 308 160 132 127 131 132 130 131 128 124 117 118 123 125 131 137 141 138 132 120 111 109 117 121 134 147
231 236 244 243 240 231 223 205 65 2 1 6 353 352 359 9 339 316 290 148 133 132 134 135 138 137 134 124 118 118 124 136 142 146 143 138 132 128 117 106 99 117 108 137
230 231 235 242 248 261 234 196 176 198 339 62 351 347 345 325 288 295 342 113 131 134 133 136 140 140 137 128 125 123 126 137 144 144 140 134 132 130 131 126 101 72 88 99